This is the latest recevied weather packets stored in our database for station/object NC4M. If no packets are shown the sender has not sent any weather packets the latest 10 day(s).
| Time | Temp. | Humidity | Pressure | Rain* | Wind** | Luminosity | Snow |
|---|---|---|---|---|---|---|---|
| 1787521542 | 24.44° C | 61% | 1018.5 hPa | 0 mm | - | 122 W/m² | - |
| 1787521237 | 24.44° C | 63% | 1018.5 hPa | 0 mm | - | 139 W/m² | - |
| 1787520932 | 24.44° C | 62% | 1018.4 hPa | 0 mm | - | 146 W/m² | - |
| 1787520628 | 24.44° C | 64% | 1018.6 hPa | 0 mm | - | 122 W/m² | - |
| 1787520323 | 24.44° C | 62% | 1018.9 hPa | 0 mm | - | 114 W/m² | - |
| 1787520019 | 24.44° C | 57% | 1018.9 hPa | 0 mm | - | 119 W/m² | - |
| 1787519715 | 25° C | 61% | 1018.9 hPa | 0 mm | - | 122 W/m² | - |
| 1787519414 | 25° C | 59% | 1019 hPa | 0 mm | - | 123 W/m² | - |
| 1787519110 | 25° C | 57% | 1019 hPa | 0 mm | - | 140 W/m² | - |
| 1787518804 | 25° C | 53% | 1018.8 hPa | 0 mm | - | 158 W/m² | - |
| 1787518501 | 25° C | 55% | 1018.7 hPa | 0 mm | - | 185 W/m² | - |
| 1787518200 | 25° C | 51% | 1018.7 hPa | 0 mm | - | 189 W/m² | - |
| 1787517896 | 25° C | 52% | 1019 hPa | 0 mm | - | 154 W/m² | - |
| 1787517591 | 25.56° C | 55% | 1019 hPa | 0 mm | - | 141 W/m² | - |
| 1787517289 | 25.56° C | 52% | 1019.1 hPa | 0 mm | - | 178 W/m² | - |
| 1787516987 | 25.56° C | 51% | 1019.3 hPa | 0 mm | - | 202 W/m² | - |
| 1787516683 | 25.56° C | 52% | 1019.2 hPa | 0 mm | - | 200 W/m² | - |
| 1787516377 | 25.56° C | 49% | 1019.3 hPa | 0 mm | - | 217 W/m² | - |
| 1787516073 | 25.56° C | 53% | 1019.3 hPa | 0 mm | - | 212 W/m² | - |
| 1787515768 | 25.56° C | 52% | 1019.1 hPa | 0 mm | - | 227 W/m² | - |
| 1787515464 | 25.56° C | 50% | 1019.3 hPa | 0 mm | - | 252 W/m² | - |
| 1787515163 | 25.56° C | 53% | 1019.4 hPa | 0 mm | - | 261 W/m² | - |
| 1787514860 | 25.56° C | 54% | 1019.5 hPa | 0 mm | - | 235 W/m² | - |
| 1787514555 | 25.56° C | 54% | 1019.4 hPa | 0 mm | - | 233 W/m² | - |
| 1787514252 | 25.56° C | 52% | 1019.7 hPa | 0 mm | - | 223 W/m² | - |
* Rain latest hour (hover to see other rain measurements)
** Current wind speed in m/s (hover to see current wind gust speed)